Volver al catálogo

SPAINSAT NG II

ActivoMilitarHEO
NORAD 66144·PAYLOAD·🇪🇸 Spain

Lanzado Oct 24, 2025 desde Cape Canaveral Space Force Station

Loading…

Próximos Pases (próximas 24 horas)

TLE

ActualizadoSource: Space-Track

Época: Sep 13, 2026, 18:00 UTC

1 66144U 25239A   26256.75068410 -.00000016  00000-0  00000-0 0  9992
2 66144  12.8715 213.8217 7646837 231.2720  32.4627  0.96596973  3190

Sigue SPAINSAT NG II en tiempo real con AllMySat

Download on the App Store